Flag for U.S.A. Weather past 2 weeks in Ann Arbor, Michigan, U.S.A.

Now
15 °F

Clear.


Feels Like: 8 °F
Forecast: 2 / 22 °F
Wind: 5 mph from Northwest

Location: Ann Arbor Municipal Airport

Current Time: Mar 5, 2015 at 8:11:21 PM

Latest Report: Mar 5, 2015 at 6:53 PM


Visibility: 10 mi

Pressure: 30.51 "Hg

Humidity: 49%

Dew point: -1 °F

Location of Ann ArborLocation

Historic Weather in Ann Arbor — Graph

°F

Ann Arbor temperature yesterday

Maximum temperature yesterday: 33 °F (at 12:53 AM)
Minimum temperature yesterday: 16 °F (at 10:53 PM)
Average temperature yesterday: 28 °F

Past Weeks' High & Low Weather Summary

 TemperatureHumidityPressure
High36 °F (Mar 3, 6:53 PM)97% (Mar 3, 5:53 PM)30.81 "Hg (Mar 3, 5:53 PM)
Low-26 °F (Feb 20, 6:53 AM)40% (Feb 19, 11:53 AM)29.59 "Hg (Mar 3, 4:53 PM)
Average12 °F68%30.25 "Hg
* Reported Feb 18 6:53 PM — Mar 5 6:53 PM, Ann Arbor, Weather by CustomWeather, © 2015

Note: Actual official high and low records may vary slightly from our data, if they occured in-between our weather recording intervals... More about our weather records

Advertising

Ann Arbor weather history for previous 24 hours

 ConditionsComfort  
Time TempWeatherWind HumidityBarometerVisibility
6:53 PM
Thu, Mar 5
15 °FClear.5 mph49%30.51 "Hg10 mi
5:53 PM16 °FPassing clouds.13 mph47%30.48 "Hg10 mi
4:53 PM17 °FSunny.7 mph45%30.45 "Hg10 mi
3:53 PM17 °FSunny.8 mph42%30.44 "Hg10 mi
2:53 PM16 °FSunny.13 mph45%30.43 "Hg10 mi
1:53 PM17 °FScattered clouds.14 mph45%30.42 "Hg10 mi
12:53 PM16 °FPassing clouds.10 mph45%30.43 "Hg10 mi
11:53 AM15 °FSunny.9 mph46%30.43 "Hg10 mi
10:53 AM14 °FSunny.5 mph47%30.42 "Hg10 mi
9:53 AM12 °FSunny.7 mph51%30.45 "Hg10 mi
8:53 AM10 °FSunny.9 mph61%30.42 "Hg10 mi
7:53 AM8 °FSunny.12 mph66%30.39 "Hg10 mi
6:53 AM7 °FClear.8 mph70%30.35 "Hg10 mi
5:53 AM9 °FClear.7 mph66%30.35 "Hg10 mi
4:53 AM10 °FClear.5 mph64%30.34 "Hg10 mi
3:53 AM11 °FClear.7 mph61%30.32 "Hg10 mi
2:53 AM13 °FClear.7 mph56%30.32 "Hg10 mi
1:53 AM14 °FClear.8 mph53%30.30 "Hg10 mi
12:53 AM15 °FClear.15 mph49%30.30 "Hg10 mi
11:53 PM
Wed, Mar 4
16 °FClear.12 mph47%30.27 "Hg10 mi
10:53 PM16 °FClear.17 mph47%30.26 "Hg10 mi
9:53 PM18 °FClear.16 mph47%30.21 "Hg10 mi
8:53 PM19 °FClear.15 mph52%30.17 "Hg10 mi
Weather by CustomWeather, © 2015

See weather overviewHow to use our weather pages